Stations météo

Publicité
Larnaca Airport, Chypre (17609): Température de l'air & dewpoint: 15.06.2018 02:00:00 - 21.06.2018 02:00:00 (EEST)Larnaca Airport, Chypre (17609): Vitesse du vent: 15.06.2018 02:00:00 - 21.06.2018 02:00:00 (EEST)Larnaca Airport, Chypre (17609): Direction du vent: 15.06.2018 02:00:00 - 21.06.2018 02:00:00 (EEST)Larnaca Airport, Chypre (17609): reduced air pressure: 15.06.2018 02:00:00 - 21.06.2018 02:00:00 (EEST)Larnaca Airport, Chypre (17609): visibility: 15.06.2018 02:00:00 - 21.06.2018 02:00:00 (EEST)
Date & Time tt [°C] td [°C] ff [km/h] ff [knt] dd ppp [hPa] vv [km]
21.06.2018 02:00:00 23,0 22,0 4 2 SSW - 10
21.06.2018 01:00:00 23,0 23,0 8 4 S - 10
21.06.2018 00:00:00 24,1 21,2 4 2 W 1013,8 15
20.06.2018 23:00:00 24,0 21,0 5 3 S - 10
20.06.2018 22:00:00 26,0 20,0 5 3 NNW - 10
20.06.2018 21:00:00 26,5 19,4 13 7 NNW 1013,1 10
20.06.2018 20:00:00 27,0 19,0 18 10 SW - 10
20.06.2018 19:00:00 27,0 20,0 24 13 SW - 10
20.06.2018 18:00:00 26,8 20,4 31 17 SW 1012,0 10
20.06.2018 17:00:00 28,0 20,0 37 20 SW - 10
20.06.2018 16:00:00 30,0 21,0 37 20 SW - 10
20.06.2018 15:00:00 28,9 20,4 41 22 SW 1012,7 10
20.06.2018 14:00:00 29,0 19,0 37 20 SW - 10
20.06.2018 13:00:00 30,0 20,0 31 17 SSW - 10
20.06.2018 12:00:00 28,6 15,5 22 12 S 1013,1 35
20.06.2018 11:00:00 28,0 17,0 21 11 S - 10
20.06.2018 10:00:00 27,0 18,0 15 8 S - 10
20.06.2018 09:00:00 26,3 18,9 9 5 SE 1013,0 35
20.06.2018 08:00:00 26,0 16,0 5 3 E - 10
20.06.2018 07:00:00 24,0 17,0 2 1 - - 10
20.06.2018 06:00:00 20,7 18,5 4 2 - 1011,5 10
20.06.2018 05:00:00 21,0 19,0 4 2 - - 10
20.06.2018 04:00:00 21,0 19,0 4 2 - - 10
20.06.2018 03:00:00 21,7 19,3 5 3 WNW 1010,3 12
20.06.2018 02:00:00 23,0 20,0 2 1 - - 10
20.06.2018 01:00:00 23,0 21,0 4 2 - - 10
20.06.2018 00:00:00 23,8 18,9 8 4 WSW 1010,8 10
19.06.2018 23:00:00 24,0 19,0 8 4 NW - 10
19.06.2018 22:00:00 25,0 18,0 11 6 NW - 10
19.06.2018 21:00:00 25,4 18,1 15 8 NW 1010,3 10
19.06.2018 20:00:00 27,0 18,0 16 9 SW - 10
19.06.2018 19:00:00 27,0 18,0 26 14 SW - 10
19.06.2018 18:00:00 27,3 18,6 35 19 SW 1009,1 10
19.06.2018 17:00:00 27,0 19,0 31 17 SW - 10
19.06.2018 16:00:00 29,0 19,0 35 19 SW - 10
19.06.2018 15:00:00 29,3 19,0 35 19 SW 1009,4 10
19.06.2018 14:00:00 29,0 19,0 31 17 SW - 10
19.06.2018 13:00:00 29,0 18,0 29 16 SW - 10
19.06.2018 12:00:00 28,8 18,3 26 14 SW 1009,9 10
19.06.2018 11:00:00 29,0 18,0 24 13 SSW - 10
19.06.2018 10:00:00 27,0 20,0 21 11 S - 10
19.06.2018 09:00:00 27,0 19,1 13 7 S 1009,6 10
19.06.2018 08:00:00 26,0 19,0 5 3 NW - 10
19.06.2018 07:00:00 24,0 21,0 0 0 N - 10
19.06.2018 06:00:00 21,0 20,0 5 3 SW - 10
19.06.2018 05:00:00 21,0 21,0 0 0 N - 10
19.06.2018 04:00:00 21,0 21,0 4 2 WNW - 10
19.06.2018 03:00:00 20,7 20,7 5 3 NW 1008,2 12
19.06.2018 02:00:00 22,0 21,0 0 0 N - 10
19.06.2018 01:00:00 23,0 22,0 5 3 SW - 10
19.06.2018 00:00:00 23,2 22,2 9 5 SW 1008,3 10
18.06.2018 23:00:00 24,0 18,0 0 0 N - 10
18.06.2018 22:00:00 25,0 19,0 15 8 NW - 10
18.06.2018 21:00:00 25,2 20,0 4 2 SSW 1008,0 17
18.06.2018 20:00:00 25,0 20,0 5 3 S - 10
18.06.2018 19:00:00 25,0 22,0 8 4 S - 10
18.06.2018 18:00:00 26,2 19,1 9 5 NE 1007,1 25
18.06.2018 17:00:00 27,0 19,0 37 20 SW - 10
18.06.2018 16:00:00 29,0 19,0 44 24 SW - 10
18.06.2018 15:00:00 28,7 19,3 41 22 SW 1006,9 10
18.06.2018 14:00:00 29,0 19,0 41 22 SW - 10
18.06.2018 13:00:00 29,0 19,0 39 21 SW - 10
18.06.2018 12:00:00 29,1 18,5 35 19 SW 1007,6 10
18.06.2018 11:00:00 29,0 19,0 31 17 SW - 10
18.06.2018 10:00:00 28,0 18,0 26 14 SSW - 10
18.06.2018 09:00:00 26,8 17,8 15 8 S 1007,9 10
18.06.2018 08:00:00 26,0 17,0 8 4 SW - 10
18.06.2018 07:00:00 23,0 17,0 5 3 W - 10
18.06.2018 06:00:00 20,6 18,0 8 4 WNW 1007,5 10
18.06.2018 05:00:00 20,0 17,0 5 3 WNW - 10
18.06.2018 04:00:00 21,0 17,0 9 5 SW - 10
18.06.2018 03:00:00 21,1 18,5 9 5 W 1007,6 10
18.06.2018 02:00:00 22,0 19,0 9 5 WSW - 10
18.06.2018 01:00:00 23,0 18,0 9 5 SSW - 10
18.06.2018 00:00:00 23,9 17,2 9 5 SSW 1008,8 10
17.06.2018 23:00:00 24,0 17,0 11 6 SW - 10
17.06.2018 22:00:00 25,0 18,0 15 8 SW - 10
17.06.2018 21:00:00 25,3 18,2 21 11 WSW 1008,6 10
17.06.2018 20:00:00 26,0 18,0 26 14 SW - 10
17.06.2018 19:00:00 27,0 19,0 41 22 SW - 10
17.06.2018 18:00:00 27,4 19,2 45 24 SW 1007,4 25
17.06.2018 17:00:00 28,0 18,0 48 26 SW - 10
17.06.2018 16:00:00 29,0 19,0 46 25 SW - 10
17.06.2018 15:00:00 29,7 18,5 44 24 SW 1008,1 10
17.06.2018 14:00:00 29,0 20,0 46 25 SW - 10
17.06.2018 13:00:00 29,0 19,0 44 24 SW - 10
17.06.2018 12:00:00 29,5 18,9 42 23 SW 1009,3 10
17.06.2018 11:00:00 29,0 19,0 34 18 SW - 10
17.06.2018 10:00:00 29,0 19,0 22 12 SSW - 10
17.06.2018 09:00:00 27,8 15,1 8 4 WSW 1009,6 10
17.06.2018 08:00:00 25,0 17,0 13 7 SW - 10
17.06.2018 07:00:00 24,0 17,0 5 3 S - 10
17.06.2018 06:00:00 21,1 18,9 8 4 SW 1008,7 10
17.06.2018 05:00:00 21,0 19,0 8 4 SW - 10
17.06.2018 04:00:00 21,0 19,0 5 3 WNW - 10
17.06.2018 03:00:00 22,0 19,5 5 3 WSW 1008,4 13
17.06.2018 02:00:00 23,0 21,0 8 4 WSW - 10
17.06.2018 01:00:00 24,0 23,0 5 3 SW - 10
17.06.2018 00:00:00 24,2 22,8 13 7 SW 1007,8 13
16.06.2018 23:00:00 24,0 23,0 11 6 SSW - 10
16.06.2018 22:00:00 25,0 24,0 13 7 WSW - 10
16.06.2018 21:00:00 25,7 25,4 18 10 SSW 1007,2 10
16.06.2018 20:00:00 26,0 25,0 5 3 SW - 10
16.06.2018 19:00:00 27,0 26,0 16 9 S - 10
16.06.2018 18:00:00 26,9 24,9 8 4 SSE 1007,4 10
16.06.2018 17:00:00 28,0 23,0 16 9 SE - 10
16.06.2018 16:00:00 29,0 23,0 18 10 SSE - 10
16.06.2018 15:00:00 28,3 21,1 16 9 SE 1007,9 10
16.06.2018 14:00:00 30,0 20,0 16 9 ESE - 10
16.06.2018 13:00:00 29,0 18,0 16 9 ESE - 10
16.06.2018 12:00:00 27,7 21,5 13 7 SE 1009,6 10
16.06.2018 11:00:00 27,0 23,0 11 6 SE - 10
16.06.2018 10:00:00 29,0 22,0 11 6 ESE - 10
16.06.2018 09:00:00 27,9 21,7 5 3 E 1009,7 10
16.06.2018 08:00:00 26,0 21,0 5 3 NNW - 10
16.06.2018 07:00:00 24,0 20,0 5 3 NW - 10
16.06.2018 06:00:00 21,1 19,4 5 3 WNW 1008,2 15
16.06.2018 05:00:00 21,0 19,0 5 3 NW - 10
16.06.2018 04:00:00 23,0 21,0 5 3 E - 10
16.06.2018 03:00:00 21,5 20,0 4 2 NNW 1008,6 15
16.06.2018 02:00:00 22,0 22,0 5 3 WSW - 10
16.06.2018 01:00:00 22,0 21,0 0 0 N - 10
16.06.2018 00:00:00 23,7 22,1 8 4 SW 1008,8 20
15.06.2018 23:00:00 25,0 17,0 4 2 NNE - 10
15.06.2018 22:00:00 27,0 13,0 11 6 NNE - 10
15.06.2018 21:00:00 27,9 13,8 9 5 NNW 1008,9 10
15.06.2018 20:00:00 26,0 20,0 18 10 SW - 10
15.06.2018 19:00:00 27,0 20,0 29 16 SW - 10
15.06.2018 18:00:00 27,5 20,3 39 21 SW 1006,9 25
15.06.2018 17:00:00 29,0 20,0 34 18 SSW - 10
15.06.2018 16:00:00 30,0 19,0 31 17 SW - 10
15.06.2018 15:00:00 29,4 17,2 29 16 SSW 1007,8 10
15.06.2018 14:00:00 30,0 16,0 28 15 S - 10
15.06.2018 13:00:00 29,0 19,0 24 13 S - 10
15.06.2018 12:00:00 27,8 20,4 21 11 S 1008,4 10
15.06.2018 11:00:00 28,0 21,0 18 10 S - 10
15.06.2018 10:00:00 28,0 21,0 13 7 S - 10
15.06.2018 09:00:00 26,9 20,0 11 6 SSE 1007,7 10
15.06.2018 08:00:00 27,0 21,0 4 2 - - 10
15.06.2018 07:00:00 24,0 22,0 4 2 - - 10
15.06.2018 06:00:00 21,7 21,4 4 2 NNW 1006,9 10
15.06.2018 05:00:00 22,0 21,0 4 2 - - 10
15.06.2018 04:00:00 22,0 22,0 8 4 SW - 10
15.06.2018 03:00:00 23,2 22,7 8 4 SW 1006,3 10
15.06.2018 02:00:00 23,0 21,0 8 4 SW - 10

tt = Température de l'air
td = dewpoint
ff = Vitesse du vent
dd = Direction du vent
ppp = reduced air pressure
vv = visibility

stations d'obs. à proximité